Location: Arleux
(50.3632°N, 2.8721°E)
Time: 05:44:03
(UTC+00:00)

SL-24 R/B - Pass Details

Date: 15 December 2019
Orbit: 617 x 1346 km, 97.9° (Epoch: 19 January)

Event Time Altitude Azimuth Distance (km) Brightness Sun altitude
Rises 05:17:40 0° 156° (SSE) 2,930 8.0 -21.7°
Reaches altitude 10° 05:19:52 10° 153° (SSE) 1,995 7.1 -21.3°
Maximum altitude 05:24:04 64° 72° (ENE) 687 4.4 -20.7°
Enters shadow 05:27:47 13° 352° (N) 1,804 6.2 -20.1°
